KMCF Airport (Macdill Afb) Information

FAA: MCF - ICAO: KMCF

KMCF Airport Location

State Florida
County Hillsborough
City Tampa
KMCF Airport is 4 miles south of Tampa, FL.
Latitude 27-50-57.6299N
Longitude 082-31-16.3797W
Elevation 14ft

KMCF Airport METARs

METAR KMCF 251616Z AUTO 22015G21KT 10SM BKN021 BKN027 OVC038 28/27 A2993 RMK AO2 DZB06E16DZB16 CIG 021V027 BKN021 V SCT SLP138 FZRANO $
Altimeter 29.93"
Temperature 28.0°C (82.4°F)
Wind 220° at 15KT with gusts to 21KT
Clouds broken at 2,100ft broken at 2,700ft overcast at 3,800ft
Visibility 10.0mi
Time observed: 2021-10-25T16:16:00Z

KMCF Airport Details

Status Operational
Activation May 1941
Ownership Military - Air Force
Usage Private
Chart MIAMI
ATC on-site Yes
Beacon schedule sunset-sunrise
Beacon color clear green

KMCF Airport Contacts

Owner USAF
Owner address MACDILL AFB, TAMPA, FL 33608
Owner phone N/A
Manager GIL LEAN
Manager address 3001 WEST M. L. KING BLVD, TAMPA, FL 33607
Manager phone 813-554-8213

KMCF Airport (Macdill Afb) Radio Frequencies

KMCF (Airport) Radio Frequencies

UNICOM N/A
Common traffic advisory frequency (CTAF) N/A